Location: Buchdorf
(48.7842°N, 10.8275°E)
Time: 23:01:09
(UTC+00:00)

Cosmos 968 Rocket - Pass Details

Date: 09 April 2020
Orbit: 741 x 771 km, 74.0° (Epoch: 03 June)

Event Time Altitude Azimuth Distance (km) Brightness Sun altitude
Exits shadow 22:25:37 43° 15° (NNE) 1,073 4.5 -32.0°
Drops below altitude 10° 22:29:07 10° 22° (NNE) 2,319 6.6 -32.2°
Sets 22:31:31 0° 23° (NNE) 3,252 7.5 -32.3°
